Date String (YYYY-MM-DD hh:mm:ss) UTC,Instrument flags,Ambient pressure (hPa),Sample flow (lpm),Bypass flow (lpm),Sample temperature (°C),Ambient temperature (°C),ASC tube jacket temperature (°C),LED temperature (°C),Box temperature (°C),Sample RH (%),Span deviation,Mass concentration (μg/m³),Mass concentration (μg/m³),Mass concentration (μg/m³)
DateTimeUTC,F1_M11,P_M11,Q1_M11,Q2_M11,T1_M11,T2_M11,T3_M11,T4_M11,T5_M11,U1_M11,ZSPAN_M11,X0_M11,X2_M11,X1_M11
2022-05-13 13:00:00,,0826.5,5.00,0.00,26.6,26.0,00.0,35.6,28.5,08.1,0000.0,0006.83,0002.80,0001.41
2022-05-13 13:01:00,,0826.4,5.00,0.00,26.6,26.0,00.0,35.6,28.5,08.2,0000.0,0006.07,0002.76,0001.42
2022-05-13 13:02:00,,0826.5,5.03,0.00,26.6,26.0,00.0,35.6,28.5,08.5,0000.0,0005.96,0002.78,0001.43
2022-05-13 13:03:00,,0826.5,4.99,0.00,26.6,25.9,00.0,35.6,28.4,08.1,0000.0,0005.69,0002.71,0001.42
2022-05-13 13:04:00,,0826.5,5.00,0.00,26.6,25.9,00.0,35.6,28.4,07.9,0000.0,0005.68,0002.69,0001.41
2022-05-13 13:05:00,,0826.5,5.00,0.00,26.6,25.9,00.0,35.6,28.4,08.2,0000.0,0005.77,0002.71,0001.40
2022-05-13 13:06:00,,0826.5,5.01,0.00,26.6,25.9,00.0,35.6,28.5,08.3,0000.0,0005.55,0002.64,0001.38
2022-05-13 13:07:00,,0826.5,5.00,0.00,26.6,26.0,00.0,35.6,28.4,08.2,0000.0,0005.66,0002.59,0001.38
2022-05-13 13:08:00,,0826.4,4.99,0.00,26.7,26.0,00.0,35.6,28.5,08.0,0000.0,0006.62,0002.57,0001.38
2022-05-13 13:09:00,,0826.5,5.01,0.00,26.7,26.0,00.0,35.6,28.5,07.9,0000.0,0006.96,0002.52,0001.38
2022-05-13 13:10:00,,0826.5,5.00,0.00,26.7,26.0,00.0,35.6,28.6,07.8,0000.0,0006.75,0002.44,0001.37
2022-05-13 13:11:00,,0826.4,4.99,0.00,26.7,26.0,00.0,35.6,28.5,07.8,0000.0,0006.82,0002.47,0001.35
2022-05-13 13:12:00,,0826.4,5.01,0.00,26.7,26.0,00.0,35.6,28.5,08.0,0000.0,0006.97,0002.53,0001.34
2022-05-13 13:13:00,,0826.4,4.99,0.00,26.7,26.0,00.0,35.6,28.5,08.2,0000.0,0006.90,0002.47,0001.32
2022-05-13 13:14:00,,0826.4,5.01,0.00,26.7,26.0,00.0,35.6,28.5,08.3,0000.0,0006.96,0002.47,0001.31
2022-05-13 13:15:00,,0826.5,4.99,0.00,26.7,26.0,00.0,35.6,28.5,08.2,0000.0,0006.94,0002.47,0001.31
2022-05-13 13:16:00,,0826.5,5.00,0.00,26.7,25.9,00.0,35.6,28.4,08.6,0000.0,0006.65,0002.41,0001.32
2022-05-13 13:17:00,,0826.5,5.00,0.00,26.6,25.9,00.0,35.6,28.4,08.2,0000.0,0006.51,0002.37,0001.32
2022-05-13 13:18:00,,0826.5,4.99,0.00,26.6,25.9,00.0,35.6,28.4,08.0,0000.0,0006.61,0002.42,0001.33
2022-05-13 13:19:00,,0826.5,5.00,0.00,26.7,25.9,00.0,35.6,28.5,07.9,0000.0,0005.64,0002.44,0001.33
2022-05-13 13:20:00,,0826.5,5.00,0.00,26.6,25.9,00.0,35.6,28.5,08.1,0000.0,0004.86,0002.43,0001.33
2022-05-13 13:21:00,,0826.5,4.99,0.00,26.6,25.9,00.0,35.6,28.4,08.2,0000.0,0004.74,0002.44,0001.34
2022-05-13 13:22:00,,0826.5,5.00,0.00,26.6,25.9,00.0,35.6,28.4,07.9,0000.0,0005.35,0002.35,0001.35
2022-05-13 13:23:00,,0826.5,5.00,0.00,26.6,25.9,00.0,35.6,28.4,08.0,0000.0,0005.48,0002.29,0001.36
2022-05-13 13:24:00,,0826.5,5.00,0.00,26.6,26.0,00.0,35.6,28.4,08.0,0000.0,0005.51,0002.32,0001.38
2022-05-13 13:25:00,,0826.5,4.99,0.00,26.6,26.0,00.0,35.6,28.5,08.1,0000.0,0005.33,0002.26,0001.38
2022-05-13 13:26:00,,0826.5,5.00,0.00,26.7,25.9,00.0,35.6,28.5,07.9,0000.0,0006.37,0002.26,0001.40
2022-05-13 13:27:00,,0826.5,5.01,0.00,26.7,25.9,00.0,35.6,28.5,08.1,0000.0,0006.59,0002.28,0001.39
2022-05-13 13:28:00,,0826.6,5.00,0.00,26.6,25.9,00.0,35.6,28.5,07.9,0000.0,0006.62,0002.26,0001.39
2022-05-13 13:29:00,,0826.6,5.01,0.00,26.6,25.9,00.0,35.6,28.4,08.0,0000.0,0006.77,0002.22,0001.38
2022-05-13 13:30:00,,0826.6,5.00,0.00,26.6,25.9,00.0,35.6,28.4,08.0,0000.0,0006.85,0002.27,0001.39
2022-05-13 13:31:00,,0826.6,4.99,0.00,26.6,25.9,00.0,35.6,28.4,07.9,0000.0,0007.04,0002.32,0001.41
2022-05-13 13:32:00,,0826.6,4.99,0.00,26.6,25.9,00.0,35.6,28.4,08.2,0000.0,0007.20,0002.37,0001.40
2022-05-13 13:33:00,,0826.6,5.00,0.00,26.6,26.0,00.0,35.6,28.5,08.1,0000.0,0006.59,0002.44,0001.40
2022-05-13 13:34:00,,0826.6,5.00,0.00,26.7,26.0,00.0,35.6,28.5,07.9,0000.0,0006.26,0002.43,0001.40
2022-05-13 13:35:00,,0826.6,5.00,0.00,26.7,26.0,00.0,35.6,28.5,07.9,0000.0,0006.40,0002.41,0001.39
2022-05-13 13:36:00,,0826.6,4.99,0.00,26.7,26.0,00.0,35.6,28.5,07.8,0000.0,0007.24,0002.45,0001.39
2022-05-13 13:37:00,,0826.6,5.01,0.00,26.7,26.0,00.0,35.6,28.5,07.9,0000.0,0007.14,0002.47,0001.38
2022-05-13 13:38:00,,0826.6,5.01,0.00,26.7,26.1,00.0,35.6,28.6,07.8,0000.0,0006.91,0002.44,0001.39
2022-05-13 13:39:00,,0826.6,4.99,0.00,26.8,26.1,00.0,35.6,28.6,08.0,0000.0,0007.03,0002.49,0001.39
2022-05-13 13:40:00,,0826.7,5.01,0.00,26.8,26.1,00.0,35.7,28.6,08.0,0000.0,0006.91,0002.49,0001.41
2022-05-13 13:41:00,,0826.7,4.99,0.00,26.8,26.2,00.0,35.7,28.7,08.3,0000.0,0006.92,0002.44,0001.41
2022-05-13 13:42:00,,0826.7,5.01,0.00,26.8,26.2,00.0,35.7,28.7,08.5,0000.0,0006.57,0002.38,0001.40
2022-05-13 13:43:00,,0826.7,4.99,0.00,26.8,26.1,00.0,35.7,28.6,08.2,0000.0,0006.51,0002.36,0001.40
2022-05-13 13:44:00,,0826.7,4.99,0.00,26.8,26.1,00.0,35.7,28.6,08.2,0000.0,0007.60,0002.34,0001.39
2022-05-13 13:45:00,,0826.6,5.00,0.00,26.7,26.1,00.0,35.7,28.5,08.1,0000.0,0007.69,0002.35,0001.38
2022-05-13 13:46:00,,0826.7,5.01,0.00,26.7,26.0,00.0,35.7,28.5,08.7,0000.0,0007.96,0002.34,0001.38
2022-05-13 13:47:00,,0826.7,5.00,0.00,26.7,26.0,00.0,35.7,28.5,08.4,0000.0,0007.66,0002.34,0001.39
2022-05-13 13:48:00,,0826.7,4.99,0.00,26.7,26.0,00.0,35.7,28.5,08.1,0000.0,0007.40,0002.37,0001.39
2022-05-13 13:49:00,,0826.6,5.00,0.00,26.7,26.0,00.0,35.7,28.5,07.9,0000.0,0008.02,0002.46,0001.42
2022-05-13 13:50:00,,0826.7,5.00,0.00,26.7,26.1,00.0,35.7,28.6,08.0,0000.0,0008.07,0002.49,0001.45
2022-05-13 13:51:00,,0826.7,5.01,0.00,26.8,26.1,00.0,35.7,28.6,07.9,0000.0,0008.02,0002.50,0001.46
2022-05-13 13:52:00,,0826.6,5.00,0.00,26.8,26.1,00.0,35.7,28.6,07.7,0000.0,0008.11,0002.62,0001.49
2022-05-13 13:53:00,,0826.6,4.99,0.00,26.8,26.1,00.0,35.7,28.6,07.7,0000.0,0008.17,0002.65,0001.51
2022-05-13 13:54:00,,0826.7,5.02,0.00,26.8,26.1,00.0,35.7,28.6,07.6,0000.0,0008.12,0002.62,0001.52
2022-05-13 13:55:00,,0826.7,4.99,0.00,26.8,26.1,00.0,35.7,28.6,07.8,0000.0,0007.57,0002.66,0001.56
2022-05-13 13:56:00,,0826.6,5.00,0.00,26.8,26.1,00.0,35.7,28.6,07.6,0000.0,0007.52,0002.66,0001.59
2022-05-13 13:57:00,,0826.6,5.00,0.00,26.8,26.1,00.0,35.7,28.6,07.6,0000.0,0007.17,0002.73,0001.62
2022-05-13 13:58:00,,0826.6,4.99,0.00,26.8,26.1,00.0,35.7,28.6,07.8,0000.0,0007.08,0002.79,0001.64
2022-05-13 13:59:00,,0826.6,5.02,0.00,26.8,26.1,00.0,35.7,28.6,08.1,0000.0,0006.72,0002.78,0001.66
